Skip Navigation Links weather.gov 
NOAA logo-Select to go to the NOAA homepage NDBC Title GraphicClick to go to NDBC home page   Select to go to the NWS homepage
Home News Organization
 
 
    
    Station List

 Observations
    Mobile Access
    Obs via Google Maps
    Classic Maps
         Recent
         Historical
         DART®
         Oil & Gas ADCP
    Obs Search
    Ship Obs Report
    Gliders
    BuoyCAMs Image indicating link to BuoyCAMs page
    APEX
    TAO
    DODS
    OceanSITES
    HF Radar
    OSMC
    Dial-A-Buoy
    RSS Feeds Image indicating link to RSS feed access page
    Obs Web Widget
    Email Access

 Station Status
    NDBC Maintenance
    NDBC Platforms
    Partner Platforms

 Program Info
    Facebook Logo
    NDBC on Facebook
    About NDBC
     Met/Ocean
          Moored Buoy
          C-MAN
    TAO
    DART®
    VOS
    CSP
    IOOS® Program
    IOOS® DAC

 Publications
    NDBC DQC Handbook
    Hurricane Data Plots
    Mariners Weather
      Log

    Observing
      Handbook No. 1


 Science Education

 NDBC Director
 FAQ
 Media Inquiries
 Contact Us
 Visitor Information
 Links
 
USA.gov is the U.S. government's official web portal to all federal, state and local government web resources and services.

TAO performance continues to improve after fourth service cruise. Read more...

Station LBSF1 - Little Blackwater, FL

Large icon indicates selected station.
yellow diamond Stations with recent data
red diamond Stations with no data in last 8 hours
     (24 hours for tsunami stations)

Owned and maintained by Everglades National Park
Water Quality Station
25.214 N 80.432 W (25°12'52" N 80°25'56" W)

Site elevation: sea level
Sea temp depth: 1.5 m below site elevation

Water levels are referenced to local datums.  They provide relative change in water level and are not to be used for navigation.

Search And Rescue (SAR) Data

Meteorological Observations from Nearby Stations and Ships Image indicating link to RSS feed of recent meteorological observations near station LBSF1


Conditions at LBSF1 as of
(1:00 pm EST)
1800 GMT on 11/24/2014:

Note: This report is more than two hours old
Unit of Measure:    Time Zone:   

Click on the graph icon in the table below to see a time series plot of the last 24 hours of that observation.

24-hour plot - Water Temperature Water Temperature (WTMP): 77.9 °F
24-hour plot - Salinity Salinity (SAL): 29.45 psu
24-hour plot - Tide (above MLLW) Tide (above MLLW) (TIDE): 1.74 ft
Previous observations
24-hour plot - Wind Direction 24-hour plot - Wind Speed 24-hour plot - Wind Gust 24-hour plot - Wave Height 24-hour plot - Dominant Wave Period 24-hour plot - Average Period 24-hour plot - Mean Wave Direction 24-hour plot - Atmospheric Pressure 24-hour plot - Pressure Tendency 24-hour plot - Air Temperature 24-hour plot - Water Temperature 24-hour plot - Dew Point 24-hour plot - Salinity 24-hour plot - Visibility 24-hour plot - Tide (above MLLW)
MM DD TIME
(EST)
   WDIR WSPD
kts
GST
kts
WVHT
ft
DPD
sec
APD
sec
MWD PRES
in
PTDY
in
ATMP
°F
WTMP
°F
DEWP
°F
SAL
psu
VIS
nmi
TIDE
ft
112412:00 pm  ---------- 77.4- 29.43- 1.72
112410:00 am  ---------- 76.5- 29.49- 1.70
1124 9:00 am  ---------- 76.3- 29.50- 1.71
1124 8:00 am  ---------- 76.3- 29.49- 1.72
1124 7:00 am  ---------- 76.3- 29.50- 1.74
1124 6:00 am  ---------- 76.3- 29.51- 1.76
1124 5:00 am  ---------- 76.3- 29.53- 1.78
1124 4:00 am  ---------- 76.3- 29.54- 1.78
1124 3:00 am  ---------- 76.3- 29.57- 1.76
1124 2:00 am  ---------- 76.3- 29.64- 1.74
1124 1:00 am  ---------- 76.3- 29.64- 1.70
112412:00 am  ---------- 76.5- 29.62- 1.68
112311:00 pm  ---------- 76.5- 29.60- 1.63
112310:00 pm  ---------- 76.5- 29.59- 1.61
1123 9:00 pm  ---------- 76.5- 29.45- 1.62
1123 8:00 pm  ---------- 76.5- 29.33- 1.64
1123 7:00 pm  ---------- 76.6- 29.21- 1.65
1123 6:00 pm  ---------- 76.6- 29.14- 1.68
1123 5:00 pm  ---------- 76.5- 29.12- 1.70
1123 4:00 pm  ---------- 76.5- 29.09- 1.70

Ocean Conditions at LBSF1 as of
(1:00 pm EST)
1800 GMT on 11/24/2014:

Note: This report is more than two hours old

These oceanographic data are displayed in rounded times.

Unit of Measure:    Time Zone:   

Click on the graph icon in the table below to see a time series plot of the last 24 hours of that observation.

 Depth (DEPTH): 4.9 ft
24-hour plot - Ocean TemperatureOcean Temperature (OTMP):77.90 °F
24-hour plot - SalinitySalinity (SAL):29.45 psu
Previous observations
24-hour plot - Ocean Temperature 24-hour plot - Conductivity 24-hour plot - Salinity 24-hour plot - Oxygen Concentration (O2PCT) 24-hour plot - Oxygen Concentration (O2PPM) 24-hour plot - Chlorophyll 24-hour plot - Turbidity 24-hour plot - pH 24-hour plot - Eh
MM   DD    TIME
(EST)
DEPTH
ft
       OTMP
°F
   COND
mS/cm
  SAL
psu
  O2%
%
   O2PPM
ppm
CLCON
ug/l
TURB
FTU
PH EH
mv
112412:00 pm 4.977.32-29.43------
112410:00 am 4.976.53-29.49------
11249:00 am 4.976.32-29.50------
11248:00 am 4.976.24-29.49------
11247:00 am 4.976.24-29.50------
11246:00 am 4.976.23-29.51------
11245:00 am 4.976.24-29.53------
11244:00 am 4.976.24-29.54------
11243:00 am 4.976.26-29.57------
11242:00 am 4.976.28-29.64------
11241:00 am 4.976.33-29.64------
112412:00 am 4.976.42-29.62------
112311:00 pm 4.976.46-29.60------
112310:00 pm 4.976.48-29.59------
11239:00 pm 4.976.51-29.45------
11238:00 pm 4.976.53-29.33------
11237:00 pm 4.976.59-29.21------
11236:00 pm 4.976.57-29.14------
11235:00 pm 4.976.51-29.12------
11234:00 pm 4.976.39-29.09------

Rainfall at LBSF1 as of
(1:00 pm EST)
1800 GMT on 11/24/2014:

Note: This report is more than two hours old
Unit of Measure:    Time Zone:   

Click on the graph icon in the table below to see a time series plot of the last 24 hours of that observation.

* indicates interpolated rain values

Previous observations
  24-hour plot - Hourly Rain Accmulation   -------- Ten-minute Rain Rates (Centered at hour + minutes) ---------
MM   DD    TIME
(EST)
  Hourly Accum
inches
  0
inches/hour
  10
inches/hour
  20
inches/hour
  30
inches/hour
  40
inches/hour
  50
inches/hour
 
11241:00 pm0.00 - - - - - - 
112412:00 pm0.00 - - - - - - 
112410:00 am0.00 - - - - - - 
11249:00 am0.00 - - - - - - 
11248:00 am0.00 - - - - - - 
11247:00 am0.00 - - - - - - 
11246:00 am0.00 - - - - - - 
11245:00 am0.00 - - - - - - 
11244:00 am0.00 - - - - - - 
11243:00 am0.00 - - - - - - 
11242:00 am0.00 - - - - - - 
11241:00 am0.00 - - - - - - 
112412:00 am0.00 - - - - - - 
112411:00 pm0.00 - - - - - - 
112410:00 pm0.00 - - - - - - 
11249:00 pm0.00 - - - - - - 
11248:00 pm0.00 - - - - - - 
11247:00 pm0.00 - - - - - - 
11236:00 pm0.00 - - - - - - 
11235:00 pm0.00 - - - - - - 
11234:00 pm0.00 - - - - - - 

Description of Measurements

Links which are specific to this station are listed below:

Real Time Data in tabular form for the last forty-five days.

Historical Data & Climatic Summaries for quality controlled data for the current month, previous months, and previous years.